Location: Fuglau
(48.6333°N, 15.5500°E)
Time: 15:19:53
(UTC+00:00)

Daily predictions for brighter satellites

Satellite Brightness Start Highest point End
(mag) Time Altitude Azimuth Time Altitude Azimuth Time Altitude Azimuth
Cosmos 921 Rocket 3.5 16:59:05 10° SSW 17:03:35 71° WNW 17:08:07 10° NNE
STARLINK-24 4.2 17:00:05 10° W 17:04:00 50° NNW 17:07:56 10° ENE
Cosmos 1470 Rocket 3.8 17:00:01 10° SSE 17:04:15 50° E 17:08:32 10° NNE
COSMOS 2487 2.8 17:01:31 10° N 17:04:50 42° ENE 17:08:08 10° SE
STARLINK-75 4.0 17:02:13 10° WNW 17:05:23 38° N 17:08:34 10° ENE
STARLINK-58 4.1 17:02:18 10° W 17:05:42 42° N 17:09:06 10° ENE
STARLINK-1011 3.6 17:02:06 10° WSW 17:06:16 87° SSE 17:10:25 10° ENE
STARLINK-1025 3.9 17:04:00 10° W 17:07:19 45° NNW 17:10:38 10° ENE
STARLINK-62 4.1 17:04:01 10° W 17:07:25 41° N 17:10:49 10° ENE
STARLINK-1035 3.7 17:03:17 10° WSW 17:07:33 87° NNW 17:11:50 10° ENE
Lacrosse 5 rocket 2.8 17:03:56 10° NW 17:07:54 29° N 17:11:59 10° ENE
STARLINK-43 3.4 17:04:13 10° WNW 17:07:55 68° NNE 17:11:37 10° ESE
STARLINK-1031 3.7 17:04:13 10° WSW 17:08:20 85° NNW 17:12:28 10° ENE
NOSS 2-3 (E) 3.7 17:04:03 10° SSW 17:08:22 76° SE 17:13:35 10° NE
STARLINK-34 4.1 17:05:39 10° W 17:09:02 41° N 17:12:27 10° ENE
STARLINK-1017 3.9 17:06:06 10° W 17:09:24 45° NNW 17:12:42 10° ENE
YAOGAN 6 3.5 17:06:09 10° S 17:09:33 52° W 17:12:59 10° NNW
Cosmos 1862 Rocket 3.5 17:05:13 10° N 17:09:36 85° E 17:13:58 10° S
Okean 1-7 3.9 17:06:13 10° N 17:10:02 29° ENE 17:13:50 10° SE
Envisat 4.2 17:05:08 10° S 17:10:03 49° W 17:15:00 10° NNW
Okean 1 4.4 17:06:49 10° NNE 17:10:09 24° ENE 17:13:26 10° SE
STARLINK-1036 3.6 17:07:06 10° WSW 17:11:14 89° NNW 17:15:24 10° ENE
Lacrosse 5 3.2 17:08:14 10° S 17:12:03 22° SE 17:15:53 10° ENE
COSMO-SKYMED 1 2.5 17:08:59 10° NNE 17:13:22 79° ESE 17:17:42 10° S
STARLINK-81 4.2 17:10:48 10° W 17:14:43 48° N 17:18:38 10° ENE
Gbstr 26 Del rocket 3.6 17:11:24 10° SSW 17:15:05 37° SE 17:19:21 10° ENE
USA 234 4.0 17:09:22 10° ENE 17:15:32 46° N 17:21:42 10° W
STARLINK-1048 3.9 17:12:28 10° W 17:15:45 43° N 17:19:04 10° ENE
STARLINK-1044 3.7 17:12:05 10° WSW 17:16:13 84° NNW 17:20:23 10° ENE
STARLINK-54 4.2 17:12:41 10° W 17:16:36 47° N 17:20:30 10° ENE
STARLINK-1049 3.9 17:14:35 10° W 17:17:54 43° N 17:21:12 10° ENE
Cosmos 405 3.7 17:14:41 10° N 17:17:56 32° ENE 17:21:10 10° SE
STARLINK-77 4.2 17:14:08 10° W 17:18:02 47° N 17:21:58 10° ENE
STARLINK-1022 4.4 17:14:17 10° SSW 17:18:04 35° SE 17:21:51 10° ENE
STARLINK-1027 3.8 17:13:57 10° WSW 17:18:13 76° NNW 17:22:30 10° ENE
Cosmos 2369 Rocket 2.5 17:12:53 10° SW 17:18:34 74° WNW 17:24:18 10° NNE
STARLINK-25 4.2 17:15:48 10° W 17:19:41 47° N 17:23:36 10° ENE
STARLINK-1051 4.0 17:16:46 10° W 17:20:03 42° N 17:23:22 10° ENE
Cosmos 1812 4.2 17:17:44 10° NNW 17:21:26 43° W 17:25:06 10° SSW
STARLINK-71 4.2 17:17:41 10° W 17:21:35 46° N 17:25:28 10° ENE
STARLINK-1028 4.0 17:18:24 10° W 17:21:43 42° N 17:25:00 10° ENE
STARLINK-79 4.2 17:19:08 10° W 17:23:02 46° N 17:26:52 10° ENE
STARLINK-1042 4.3 17:19:12 10° SSW 17:23:02 38° SE 17:26:40 11° ENE
NOSS 2-3 (D) 3.8 17:19:09 10° SW 17:23:31 89° NW 17:28:46 10° NE
Cosmos 1898 Rocket 3.7 17:18:27 10° NNW 17:23:32 51° ENE 17:28:35 10° SE
STARLINK-1021 4.0 17:20:36 10° W 17:23:55 42° N 17:27:06 11° ENE
Cosmos 44 Rocket 3.4 17:19:23 10° NNW 17:24:04 56° NE 17:28:46 10° SE
STARLINK-78 4.2 17:20:49 10° W 17:24:43 46° N 17:28:29 11° ENE
Cosmos 2242 Rocket 3.6 17:20:17 10° N 17:24:51 73° E 17:29:25 10° SSE
STARLINK-1037 3.7 17:21:57 10° WSW 17:26:06 77° NNW 17:30:09 11° ENE
STARLINK-1019 4.0 17:22:48 10° W 17:26:06 41° N 17:29:13 11° ENE
USA 229 DEB 4.3 17:19:47 10° WSW 17:26:17 56° NW 17:33:09 10° NE
USA 229 4.3 17:19:54 10° WSW 17:26:23 57° NW 17:33:15 10° NE
STARLINK-57 4.3 17:22:35 10° W 17:26:28 46° N 17:30:09 11° ENE
Cosmos 1763 Rocket 4.3 17:22:38 10° SSE 17:27:10 30° E 17:31:45 10° NE
Cosmos 1703 Rocket 3.8 17:22:48 10° N 17:27:10 49° ENE 17:31:31 10° SSE
STARLINK-1056 4.2 17:24:06 10° SSW 17:27:59 41° SE 17:31:27 13° ENE
STARLINK-49 4.3 17:24:08 10° W 17:28:01 46° N 17:31:39 12° ENE
SJ 16-02 1.6 17:23:52 10° NNW 17:28:09 48° ENE 17:32:24 10° SE
STARLINK-1012 4.0 17:25:03 10° W 17:28:20 41° N 17:31:21 12° ENE
CENTAUR R/B 4.0 17:22:03 10° NW 17:28:40 32° NNE 17:35:27 12° E
STARLINK-27 4.3 17:25:47 10° W 17:29:40 45° N 17:33:13 12° ENE
STARLINK-48 3.9 17:25:54 10° WNW 17:29:42 48° NNE 17:32:51 14° E
ARGOS 4.1 17:25:20 10° ESE 17:29:50 27° ENE 17:34:21 10° N
Meteor 1-25 Rocket 4.3 17:25:03 10° S 17:30:31 53° E 17:35:58 10° NNE
STARLINK-1059 3.8 17:27:02 10° WSW 17:31:10 73° NNW 17:35:01 12° ENE
Aureole 2 Rocket 4.4 17:29:04 10° WSW 17:31:15 22° WNW 17:33:29 10° N
STARLINK-74 4.3 17:27:27 10° W 17:31:21 45° N 17:34:50 12° ENE
Okean-O 4.2 17:27:29 10° SSW 17:31:39 40° W 17:35:52 10° NNW
STARLINK-1026 4.0 17:29:29 10° W 17:32:46 40° N 17:35:36 13° ENE
STARLINK-1054 4.1 17:28:59 10° SW 17:32:55 44° SE 17:36:12 14° ENE
STARLINK-39 4.3 17:29:07 10° W 17:33:00 45° N 17:36:24 13° ENE
NOSS 3-1 (A) 3.8 17:27:42 10° SW 17:33:19 67° NW 17:39:57 10° NE
STARLINK-1023 4.0 17:30:21 10° WNW 17:33:28 38° N 17:36:07 13° ENE
USA 186 3.2 17:34:04 15° ENE 17:34:07 15° ENE 17:35:49 10° NNE
Resurs 01 Rocket 3.7 17:33:59 10° ENE 17:34:17 10° NE 17:34:35 10° NE
STARLINK-31 4.3 17:30:49 10° W 17:34:42 45° N 17:38:02 13° ENE
STARLINK-1013 4.1 17:31:44 10° WNW 17:35:01 40° N 17:37:46 14° ENE
Cosmos 1939 Rocket 3.0 17:31:00 10° SSE 17:35:09 89° WSW 17:39:19 10° NNW
STARLINK-61 4.2 17:31:43 10° WNW 17:35:28 42° N 17:38:30 15° ENE
STARLINK-1057 3.8 17:32:02 10° WSW 17:36:10 70° NNW 17:39:48 13° ENE
STARLINK-26 3.7 17:33:09 10° WNW 17:36:30 45° NNE 17:38:56 17° E
STARLINK-69 4.3 17:32:41 10° WNW 17:36:34 44° N 17:39:48 14° ENE
Cosmos 1869 Rocket 4.2 17:33:12 10° SSE 17:37:05 31° E 17:40:57 10° NNE
STARLINK-1009 4.1 17:33:58 10° WNW 17:37:15 40° N 17:39:54 14° ENE
CSL-04 Rocket 3.8 17:32:20 10° SSE 17:37:51 86° WSW 17:43:20 10° NNW
STARLINK-1062 4.0 17:33:54 10° SW 17:37:53 47° SE 17:40:58 16° ENE
STARLINK-21 4.3 17:34:10 10° WNW 17:38:03 44° N 17:41:14 14° ENE
STARLINK-1015 4.1 17:36:14 10° WNW 17:39:31 39° N 17:42:04 15° ENE
STARLINK-45 4.3 17:36:04 10° WNW 17:39:56 44° N 17:43:01 15° ENE
STARLINK-1034 3.9 17:37:00 10° WSW 17:41:08 67° NNW 17:44:34 15° ENE
STARLINK-70 4.3 17:37:37 10° WNW 17:41:30 44° N 17:44:31 15° ENE
STARLINK-1053 3.9 17:38:50 10° SW 17:42:51 51° SE 17:45:46 17° ENE
CZ-2D R/B 3.5 17:38:58 10° S 17:42:51 75° WSW 17:46:45 10° NNW
STARLINK-76 4.3 17:39:09 10° WNW 17:43:02 44° N 17:45:59 16° ENE
ATLAS 3B R/B 4.0 17:38:07 10° NW 17:43:30 25° NNE 17:48:15 13° ENE
STARLINK-1014 4.1 17:41:14 10° W 17:44:36 41° N 17:47:04 16° ENE
STARLINK-23 4.3 17:40:49 10° WNW 17:44:41 44° N 17:47:34 16° ENE
CZ-2C R/B 3.9 17:40:02 10° SE 17:45:13 36° ENE 17:50:16 10° N
STARLINK-1068 3.9 17:42:00 10° W 17:46:08 64° NNW 17:49:21 16° ENE
STARLINK-80 3.5 17:42:25 10° WNW 17:46:13 65° NNE 17:48:42 20° E
STARLINK-32 4.3 17:42:27 10° WNW 17:46:20 44° N 17:49:08 17° ENE
CZ-4 R/B 2.7 17:42:29 10° S 17:46:30 45° W 17:50:29 10° NNW
STARLINK-1061 3.8 17:43:45 10° SW 17:47:47 54° SSE 17:50:32 19° ENE
STARLINK-40 4.3 17:44:08 10° WNW 17:48:00 44° N 17:50:45 18° ENE
STARLINK-44 4.3 17:45:48 10° WNW 17:49:40 44° N 17:52:20 18° ENE
Lacrosse 4 Rocket 4.2 17:47:57 10° NW 17:49:51 12° NNW 17:51:46 10° N
YAOGAN 1 3.4 17:46:25 10° S 17:50:39 54° W 17:54:56 10° NNW
STARLINK-37 4.3 17:47:35 10° WNW 17:51:28 44° N 17:54:02 19° ENE
STARLINK-1067 3.7 17:48:42 10° SW 17:52:46 58° SSE 17:55:19 21° ENE
STARLINK-36 4.3 17:49:06 10° WNW 17:52:58 43° N 17:55:30 19° ENE
STARLINK-64 4.1 17:49:45 10° WNW 17:53:11 40° N 17:55:09 21° ENE
Ariane Rocket 3.0 17:48:30 10° SSE 17:53:31 62° ENE 17:58:34 10° N
Cosmos 540 Rocket 4.4 17:49:27 10° SSE 17:53:35 25° E 17:57:44 10° NE
STARLINK-33 3.8 17:51:24 10° WNW 17:54:30 39° N 17:56:01 24° ENE
STARLINK-68 4.3 17:51:00 10° WNW 17:54:52 43° N 17:57:17 20° ENE
Okean 3 4.3 17:51:16 10° N 17:55:00 30° ENE 17:56:53 21° ESE
SJ-6B 3.6 17:53:43 22° ESE 17:55:08 28° ENE 17:58:27 10° N
Cosmos 489 Rocket 4.5 17:49:10 10° S 17:55:26 67° ESE 18:01:43 10° NNE
STARLINK-55 3.8 17:52:45 10° WNW 17:55:53 40° N 17:57:20 25° ENE
STARLINK-1060 4.0 17:52:00 10° W 17:56:07 59° NNW 17:58:55 19° ENE
USA 116 4.3 17:52:08 10° N 17:56:18 71° WNW 18:00:57 10° SSW
STARLINK-63 4.3 17:52:33 10° WNW 17:56:25 43° N 17:58:46 21° ENE
STARLINK-66 3.8 17:53:39 10° WNW 17:56:47 39° N 17:58:12 25° ENE
STARLINK-28 3.8 17:54:22 10° WNW 17:57:30 41° N 17:58:52 26° ENE
FREGAT/IRIS 3.0 17:57:40 32° ENE 17:57:40 32° ENE 18:00:10 10° N
STARLINK-1058 3.7 17:53:38 10° SW 17:57:43 63° SSE 18:00:05 24° ENE
Cosmos 990 Rocket 4.0 17:52:48 10° NNW 17:57:58 87° WSW 18:03:07 10° SSE
STARLINK-35 4.3 17:54:06 10° WNW 17:57:58 43° N 18:00:16 21° ENE
STARLINK-42 3.8 17:55:14 10° WNW 17:58:18 38° N 17:59:38 25° ENE
STARLINK-51 4.3 17:55:46 10° WNW 17:59:39 43° N 18:01:52 22° ENE
STARLINK-1029 4.0 17:57:23 10° WNW 18:00:22 36° N 18:01:47 23° NE
STARLINK-1030 4.0 17:57:03 10° W 18:01:08 57° NNW 18:03:43 21° ENE
STARLINK-1007 4.1 17:57:57 10° WNW 18:01:08 37° N 18:02:38 23° NE
STARLINK-30 4.3 17:57:26 10° WNW 18:01:18 43° N 18:03:27 23° ENE
Cosmos 1943 Rocket 3.9 17:56:25 10° WSW 18:01:21 32° NW 18:06:18 10° NNE
Cosmos 1933 Rocket 4.2 17:57:35 10° SSW 18:01:56 59° WNW 18:06:16 10° N
Cosmos 2297 Rocket 3.0 17:57:16 10° NNW 18:02:25 34° NE 18:04:59 23° E
STARLINK-1043 3.6 17:58:35 10° SW 18:02:41 67° SSE 18:04:52 26° ENE
STARLINK-72 4.3 17:59:07 10° WNW 18:02:59 43° N 18:05:03 23° ENE
SJ-11-01 4.2 17:59:27 10° SSE 18:04:05 72° ENE 18:08:45 10° N
STARLINK-50 4.3 18:00:47 10° WNW 18:04:39 43° N 18:06:39 24° ENE
Nadezhda 4 Rocket 4.0 17:58:53 10° N 18:05:10 64° ENE 18:11:27 10° SSE
STARLINK-1020 4.1 18:02:01 10° W 18:06:06 55° NNW 18:08:30 23° NE
SL-08 RB Rocket 4.4 18:04:27 25° ESE 18:06:07 33° ENE 18:10:07 10° N
STARLINK-59 4.3 18:02:32 10° WNW 18:06:25 44° N 18:08:19 25° ENE
STARLINK-1065 3.6 18:03:22 10° SW 18:07:28 71° SSE 18:09:29 29° ENE
STARLINK-56 4.3 18:04:06 10° WNW 18:07:59 43° N 18:09:50 26° ENE
IRS-1A Rocket 4.1 18:03:43 10° SSE 18:09:12 78° ENE 18:14:44 10° NNW
STARLINK-73 4.3 18:05:46 10° WNW 18:09:38 44° N 18:11:25 27° ENE
Cosmos 1346 Rocket 4.3 18:06:08 10° SW 18:09:51 38° WNW 18:13:34 10° N
STARLINK-1010 4.0 18:07:22 10° WNW 18:10:27 36° N 18:11:28 28° NE
STARLINK-1052 4.1 18:07:03 10° W 18:11:06 54° NNW 18:13:17 25° NE
STARLINK-38 4.3 18:07:27 10° WNW 18:11:19 44° N 18:13:02 27° ENE
STARLINK-1063 3.5 18:08:28 10° SW 18:12:36 76° SSE 18:14:25 32° ENE
Cosmos 1464 Rocket 4.0 18:06:15 10° S 18:12:38 88° E 18:19:03 10° N
Cosmos 1937 Rocket 3.5 18:07:28 10° NNW 18:12:45 89° WSW 18:17:57 10° SSE
STARLINK-65 4.3 18:09:05 10° WNW 18:12:58 44° N 18:14:36 28° ENE
STARLINK-1047 4.2 18:09:22 10° W 18:13:27 53° NNW 18:15:33 26° NE
STARLINK-53 4.2 18:10:51 10° WNW 18:14:44 44° N 18:16:17 29° NE
ADEOS Rocket 3.7 18:07:19 10° NNE 18:15:10 83° WNW 18:22:46 10° SSW
Cosmos 1515 3.6 18:11:29 10° N 18:15:15 60° ENE 18:17:27 23° SSE
MONITOR-E 4.0 18:16:07 54° NNE 18:16:07 54° NNE 18:18:26 10° N
Genesis I 3.1 18:12:03 10° NW 18:15:54 63° NE 18:17:05 40° ESE
STARLINK-1064 3.5 18:13:26 10° WSW 18:17:35 80° SSE 18:19:11 36° ENE
USA 238 DEB 4.0 18:10:34 10° NW 18:17:37 58° NE 18:21:52 26° ESE
USA 238 4.0 18:10:40 10° NW 18:17:42 58° NE 18:21:56 26° ESE
Meteor 2-11 Rocket 4.4 18:12:49 10° S 18:18:55 86° W 18:25:03 10° N
Cosmos 1263 4.5 18:15:08 10° N 18:19:19 80° E 18:21:35 20° SSE
STARLINK-1033 4.2 18:17:03 10° W 18:21:06 51° N 18:22:50 30° NE
Cosmos 2227 Rocket 2.7 18:16:20 10° NNW 18:21:40 40° NE 18:23:25 32° E
STARLINK-1041 3.5 18:18:25 10° WSW 18:22:33 85° SSE 18:23:59 40° ENE
SL-24 DEB 4.1 18:20:02 10° SSE 18:24:40 66° E 18:29:17 10° N
Cosmos 2221 Rocket 3.5 18:21:06 10° N 18:25:38 68° E 18:28:33 21° SSE
STARLINK-1038 3.5 18:23:22 10° WSW 18:27:31 89° SSE 18:28:45 45° ENE
Cosmos 1674 Rocket 4.5 18:24:42 10° N 18:28:02 31° NE 18:28:02 31° NE
H-2A R/B 2.1 18:25:13 10° SSE 18:30:37 87° E 18:36:08 10° NNW
STARLINK-1024 4.3 18:27:05 10° W 18:31:07 48° N 18:32:25 35° NE
STARLINK-1046 3.5 18:28:22 10° WSW 18:32:31 87° NNW 18:33:33 50° ENE
STARLINK 1040 4.0 18:30:31 10° WNW 18:32:39 32° NNW 18:32:39 32° NNW
Cosmos 2034 Rocket 3.9 18:29:00 10° S 18:35:10 88° W 18:41:23 10° N
STARLINK-22 3.7 18:33:14 10° WNW 18:36:16 44° N 18:36:16 44° N
Cosmos 372 Rocket 3.9 18:32:04 10° NNW 18:37:20 67° ENE 18:39:10 40° SE
STARLINK-1039 3.6 18:33:23 10° WSW 18:37:32 82° NNW 18:38:22 56° NE
STARLINK-41 3.7 18:34:43 10° WNW 18:37:41 45° N 18:37:41 45° N
Cosmos 220 Rocket 4.3 18:34:14 10° SSW 18:38:31 67° WNW 18:42:46 10° NNE
STARLINK-1016 4.0 18:35:33 10° WNW 18:38:43 39° N 18:38:43 39° N
STARLINK-1008 4.0 18:37:12 10° WNW 18:40:20 40° N 18:40:20 40° N
STARLINK-1032 4.3 18:37:07 10° W 18:41:08 47° N 18:41:59 40° NNE
STARLINK-75 3.7 18:39:03 10° WNW 18:41:58 49° NNW 18:41:58 49° NNW
STARLINK-1045 3.6 18:38:21 10° WSW 18:42:30 78° NNW 18:43:08 61° NE
STARLINK-58 3.8 18:40:02 10° WNW 18:43:17 47° N 18:43:17 47° N
STARLINK-24 4.0 18:39:40 10° WNW 18:43:35 48° N 18:43:51 47° NNE
Resurs 1-3 3.8 18:44:36 50° NE 18:44:36 50° NE 18:48:31 10° N
STARLINK-1025 4.1 18:41:22 10° WNW 18:44:21 40° N 18:44:21 40° N
STARLINK-62 3.8 18:41:45 10° WNW 18:44:55 47° N 18:44:55 47° N
STARLINK-1011 4.3 18:42:06 10° W 18:46:07 46° N 18:46:45 42° NNE
STARLINK-1017 4.1 18:43:28 10° WNW 18:46:21 39° N 18:46:21 39° N
Cosmos 1428 Rocket 4.5 18:40:49 10° N 18:46:50 56° ENE 18:48:34 42° SE
STARLINK-34 3.9 18:43:21 10° WNW 18:46:29 47° N 18:46:29 47° N
STARLINK-1050 3.6 18:43:23 10° WSW 18:47:31 73° NNW 18:47:59 65° NNE
Lacrosse 5 rocket 1.7 18:43:17 10° NW 18:47:49 59° NNE 18:48:11 57° NE
STARLINK-1035 4.3 18:43:46 10° W 18:47:53 46° N 18:48:33 42° NNE
STARLINK-1031 4.3 18:44:09 10° WNW 18:48:07 45° N 18:48:37 42° NNE
MetOp-A 4.1 18:46:49 45° SE 18:48:20 65° ENE 18:53:38 10° N
Cosmos 2219 3.1 18:44:17 10° NNW 18:50:05 85° ENE 18:52:15 40° SSE
STARLINK-1036 4.3 18:47:07 10° W 18:51:07 45° N 18:51:32 44° NNE
STARLINK-1055 3.7 18:48:22 10° WSW 18:52:30 70° NNW 18:52:45 68° N
Cosmos 1092 Rocket 4.0 18:46:39 10° N 18:53:03 89° ENE 18:58:47 13° S
STARLINK-1048 4.3 18:49:49 10° WNW 18:52:29 37° NNW 18:52:29 37° NNW
STARLINK-81 4.1 18:50:24 10° WNW 18:54:10 49° N 18:54:10 49° N
Lacrosse 5 1.8 18:49:23 10° SW 18:54:29 89° NNW 18:55:38 55° NE
STARLINK-1049 4.4 18:51:58 10° WNW 18:54:32 37° NNW 18:54:32 37° NNW
STARLINK-1044 4.3 18:52:08 10° WNW 18:56:07 45° N 18:56:19 45° N
STARLINK-54 4.1 18:52:15 10° WNW 18:55:56 50° N 18:55:56 50° N
Meteor 2-4 Rocket 4.1 18:51:12 10° NNW 18:57:05 68° W 19:02:59 10° S
STARLINK-1051 4.5 18:54:08 10° WNW 18:56:37 36° NNW 18:56:37 36° NNW
STARLINK-1022 3.8 18:53:21 10° WSW 18:57:29 67° NNW 18:57:32 67° NNW
STARLINK-77 4.1 18:53:43 10° WNW 18:57:20 49° N 18:57:20 49° N
USA 234 3.8 18:55:21 32° ENE 18:57:51 46° N 19:04:01 10° WNW
STARLINK-1027 4.3 18:54:30 10° WNW 18:58:37 45° N 18:58:47 45° N
Cosmos 1634 Rocket 3.9 18:52:38 10° S 18:58:53 66° E 19:05:10 10° NNE
STARLINK-25 4.2 18:55:21 10° WNW 18:58:55 49° N 18:58:55 49° N
GP-B 4.1 19:01:33 36° NNE 19:01:33 36° NNE 19:04:17 10° N
Cosmos 2263 Rocket 4.0 18:56:19 10° N 18:59:45 17° NNE 18:59:45 17° NNE
CZ-2C R/B 4.4 18:55:31 10° NNE 18:57:07 19° NE 18:57:07 19° NE
STARLINK-71 4.2 18:57:14 10° WNW 19:00:42 49° NNW 19:00:42 49° NNW
Gbstr 26 Del rocket 3.2 18:57:28 10° W 19:01:44 73° NNW 19:02:07 68° NNE
Cosmos 1814 Rocket 3.8 18:56:59 10° SSW 19:02:07 88° WNW 19:07:19 10° NNE
STARLINK-1042 3.9 18:58:23 10° WSW 19:02:20 64° NW 19:02:20 64° NW
STARLINK-79 4.2 18:58:41 10° WNW 19:02:07 48° NNW 19:02:07 48° NNW
STARLINK-78 4.3 19:00:22 10° WNW 19:03:43 47° NNW 19:03:43 47° NNW
USA 186 4.1 19:05:54 20° WNW 19:05:54 20° WNW 19:07:22 10° NW
Cosmos 2195 Rocket 4.4 18:58:47 10° N 19:04:58 88° W 19:08:27 28° S
Meteor 2-13 Rocket 4.4 18:59:42 10° N 19:05:41 57° ENE 19:05:45 57° ENE
STARLINK-1037 4.4 19:02:03 10° WNW 19:05:48 44° NNW 19:05:48 44° NNW
STARLINK-57 4.3 19:02:06 10° WNW 19:05:24 47° NNW 19:05:24 47° NNW
SJ 16-02 3.9 19:03:10 10° NW 19:06:24 20° W 19:09:37 10° SW
STARLINK-1056 4.1 19:03:22 10° W 19:07:06 58° NW 19:07:06 58° NW
STARLINK-49 4.4 19:03:40 10° WNW 19:06:53 46° NNW 19:06:53 46° NNW
NOSS 3-2 (A) 3.9 19:00:25 10° NW 19:07:52 90° W 19:10:56 43° SE
Cosmos 841 Rocket 3.6 19:03:04 10° SSW 19:08:12 72° WNW 19:13:25 10° NNE
STARLINK-48 4.3 19:04:35 10° WNW 19:07:38 49° W 19:07:38 49° W
STARLINK-27 4.4 19:05:18 10° WNW 19:08:28 45° NNW 19:08:28 45° NNW
ARGOS 3.8 19:04:37 11° S 19:09:47 53° W 19:15:08 10° NNW
Resurs 01 Rocket 2.5 19:11:23 40° N 19:11:23 40° N 19:14:20 10° N
Cosmos 2298 Rocket 4.2 19:05:25 10° NNW 19:10:45 71° WSW 19:12:02 50° S
STARLINK-74 4.5 19:06:58 10° WNW 19:10:04 44° NNW 19:10:04 44° NNW
NOSS 3-2 (C) 3.9 19:04:20 10° NW 19:11:43 73° NE 19:13:51 52° ESE
STARLINK-1054 4.3 19:08:21 10° W 19:11:52 53° NW 19:11:52 53° NW
ARGOS Delta rocket 4.4 19:13:10 35° SSW 19:14:37 50° W 19:19:01 10° NNW
SPOT 3 Rocket 3.9 19:13:10 38° S 19:15:05 65° WSW 19:20:18 10° NNW
Meteor 1-11 Rocket 3.5 19:10:05 10° S 19:15:40 85° E 19:21:13 10° NNE
CENTAUR R/B 3.1 19:12:53 10° NW 19:20:45 70° NE 19:22:39 55° ESE
CZ-2C R/B 4.3 19:19:30 10° SSW 19:24:58 43° W 19:30:20 10° NNW
Cosmos 1125 Rocket 3.7 19:27:24 10° NNW 19:32:01 67° NW 19:32:01 67° NW
Cosmos 540 Rocket 4.2 19:29:53 10° SW 19:34:52 50° WNW 19:39:54 10° NNE
ATLAS 3B R/B 2.9 19:29:02 10° NW 19:35:31 55° NE 19:35:31 55° NE
Cosmos 1066 Rocket 4.4 19:36:48 10° NNW 19:42:00 71° NW 19:42:00 71° NW
Cosmos 2297 Rocket 2.8 19:41:13 10° NW 19:46:41 50° WSW 19:46:50 50° WSW
Terra 4.4 19:57:30 11° N 19:57:30 11° N 19:57:47 10° N
ATLAS 2AS CENTAUR R/B 4.4 19:51:08 10° SSW 19:53:45 23° SSW 19:53:45 23° SSW
Cosmos 2227 Rocket 3.3 20:00:29 10° NW 20:05:17 39° W 20:05:17 39° W
Lacrosse 5 rocket 4.3 20:22:44 10° WNW 20:23:51 16° WNW 20:23:51 16° WNW
Lacrosse 5 4.3 20:33:14 10° W 20:34:52 19° WNW 20:34:52 19° WNW
USA 234 4.1 20:42:41 46° NW 20:42:41 46° NW 20:47:03 10° NW
Cosmos 2263 Rocket 4.2 20:39:22 10° NNW 20:41:27 23° NNW 20:41:27 23° NNW
CENTAUR R/B 4.2 21:03:56 10° NW 21:09:51 37° W 21:09:51 37° W
ATLAS 3B R/B 4.4 21:19:56 10° NW 21:22:47 25° WNW 21:22:47 25° WNW
